Location: Unnamed
(47.6264°N, 122.3366°W)
Time: 20:19:31
(UTC-07:00)

BlueWalker 3 - Visible Passes

Search period start: 28 May 2023 00:00
Search period end: 07 June 2023 00:00
Orbit: 495 x 512 km, 53.2° (Epoch: 28 May)

Date Brightness Start Highest point End Pass type
(mag) Time Alt. Az. Time Alt. Az. Time Alt. Az.
28 May 3.2 00:37:58 10° W 00:41:39 41° NNW 00:45:23 10° ENE visible
28 May 3.5 02:17:08 10° WNW 02:20:47 37° N 02:24:27 10° ENE visible
28 May 2.0 03:55:44 10° WNW 03:59:39 88° NNE 04:03:34 10° ESE visible
28 May 1.8 22:38:47 10° SW 22:42:36 69° SSE 22:46:28 10° ENE visible
29 May 3.3 00:17:39 10° W 00:21:20 41° NNW 00:25:03 10° ENE visible
29 May 3.5 01:56:48 10° WNW 02:00:27 38° N 02:04:08 10° ENE visible
29 May 1.9 03:35:25 10° WNW 03:39:19 89° N 03:43:14 10° ESE visible
29 May 1.8 22:18:26 10° SW 22:22:16 71° SSE 22:26:08 10° ENE visible
29 May 3.3 23:57:20 10° W 00:01:01 41° NNW 00:04:42 10° ENE visible
30 May 3.5 01:36:28 10° WNW 01:40:08 38° N 01:43:48 10° ENE visible
30 May 1.9 03:15:04 10° WNW 03:18:59 89° SSW 03:22:54 10° ESE visible
30 May 1.8 21:58:06 10° SW 22:01:55 73° SSE 22:05:47 10° ENE visible
30 May 3.3 23:37:01 10° W 23:40:40 40° NNW 23:44:23 10° ENE visible
31 May 3.4 01:16:09 10° WNW 01:19:48 38° N 01:23:28 10° E visible
31 May 1.8 02:54:44 10° WNW 02:58:38 87° SSW 03:02:33 10° ESE visible
31 May 3.4 04:34:01 10° W 04:36:44 18° SW 04:39:27 10° S visible
31 May 1.9 21:37:44 10° SW 21:41:34 74° SSE 21:45:26 10° ENE visible
31 May 3.4 23:16:40 10° W 23:20:20 40° NNW 23:24:02 10° ENE visible
01 Jun 3.4 00:55:48 10° WNW 00:59:28 38° N 01:03:08 10° E visible
01 Jun 1.8 02:34:23 10° WNW 02:38:17 86° SSW 02:42:12 10° ESE visible
01 Jun 3.4 04:13:43 10° W 04:16:22 18° SW 04:19:01 10° S visible
01 Jun 3.4 22:56:20 10° W 22:59:59 40° NNW 23:03:40 10° ENE visible
02 Jun 3.4 00:35:27 10° WNW 00:39:07 38° N 00:42:47 10° E visible
02 Jun 1.8 02:14:02 10° WNW 02:17:56 84° SSW 02:21:50 10° ESE visible
02 Jun 3.4 03:53:24 10° W 03:56:00 17° SW 03:58:24 11° S visible
02 Jun 3.4 22:35:59 10° W 22:39:38 39° N 22:43:19 10° ENE visible
03 Jun 3.4 00:15:06 10° WNW 00:18:45 39° N 00:22:25 10° E visible
03 Jun 1.8 01:53:40 10° WNW 01:57:34 82° SSW 01:59:40 26° SE visible
03 Jun 3.8 03:33:05 10° W 03:34:12 14° WSW 03:34:12 14° WSW visible
03 Jun 3.4 22:15:38 10° W 22:19:17 39° N 22:22:57 10° ENE visible
03 Jun 3.3 23:54:44 10° WNW 23:58:24 39° N 00:02:04 10° E visible
04 Jun 1.8 01:33:18 10° WNW 01:37:12 81° SSW 01:38:17 45° SE visible
04 Jun 4.3 03:12:46 10° W 03:12:54 11° W 03:12:54 11° W visible
04 Jun 3.4 21:55:17 10° W 21:58:55 39° N 22:02:34 10° ENE visible
04 Jun 3.3 23:34:22 10° WNW 23:38:02 39° N 23:41:42 10° E visible
05 Jun 1.8 01:12:56 10° WNW 01:16:49 79° SSW 01:17:32 57° SE visible
05 Jun 3.3 23:13:59 10° WNW 23:17:39 39° N 23:21:20 10° E visible
06 Jun 1.8 00:52:33 10° WNW 00:56:26 77° SSW 00:57:04 59° SE visible
06 Jun 3.2 22:53:36 10° WNW 22:57:16 40° NNE 23:00:57 10° E visible
